"Pseudo-MPEC" for P229OYs

Created 2025 May 17 0:31:04 UT using Find_Orb

Click here for an explanation of pseudo-MPECs

 
 Astrometry: 
     P229OYs* C2025 05 02.43230614 22 57.083-24 02 56.27   ~52J2 21.83wXNEOCPF52
     P229OYs  C2025 05 02.45515714 22 57.169-24 02 20.03   ~52J2 21.78wXNEOCPF52
     P229OYs  C2025 05 02.46657614 22 57.213-24 02 01.78   ~52J2 21.60wXNEOCPF52

Station data:
(F52) Pan-STARRS 2, Haleakala  (N20.707382 W156.255910)  US/Hawaii.
   Observers J. Bulger, T. Dukes, T. Lowe, A. Schultz, M. Willman. Measurers
   K. Chambers, S. Chastel, T. de Boer, L. Denneau, J. Fairlamb, H.
   Flewelling, M. Huber, C.-C. Lin, E. Magnier, Y. Ramanjooloo, R. Wainscoat,
   R. Weryk. 1.8-m Ritchey-Chrétien + CCD.

Orbital elements:  P229OYs
   Perihelion 2025 Jun 23.66161 +/- 52.7 TT = 15:52:43 (JD 2460850.16161)
Epoch 2025 May  2.0 TT = JDT 2460797.5   Earth MOID: 0.3114      AutoNEOCP
M 345.47594769 +/- 17               (J2000 ecliptic)
n   0.27579960 +/- 0.241            Peri.   26.59928 +/- 60
a   2.33743903 +/- 1.36             Node   234.03137 +/- 43
e   0.4387990 +/- 0.248             Incl.   12.30867 +/- 7
P   3.57364                H 22.33  G  0.15   U 11.8  SR
q 1.31177293 +/- 0.405    Q 3.36310513 +/- 65
From 3 observations 2025 May 2 (49.3 min); mean residual 0".02
Residuals in arcseconds: 
250502 F52  .00   .01+    250502 F52  .01+  .02-    250502 F52  .00   .03+    

Ephemerides (geocentric):
Date (UTC) HH   RA             Dec           delta  r     elong  mag " sig PA
---- --------  ------------   ------------  ------ ------ -----  --- --------
2025 05 17 01  14 28 07.353   -16 32 22.98  .36268 1.3634 163.9 21.5  45d 102
2025 05 17 02  14 28 08.707   -16 30 57.93  .36261 1.3632 163.9 21.5  45d 102
2025 05 17 03  14 28 10.065   -16 29 32.85  .36254 1.3631 163.8 21.5  45d 102
2025 05 17 04  14 28 11.426   -16 28 07.74  .36247 1.3630 163.8 21.5  45d 102
2025 05 17 05  14 28 12.791   -16 26 42.62  .36240 1.3629 163.7 21.5  45d 102
2025 05 17 06  14 28 14.159   -16 25 17.47  .36233 1.3628 163.7 21.5  45d 102
2025 05 17 07  14 28 15.530   -16 23 52.29  .36227 1.3627 163.7 21.5  45d 102
2025 05 17 08  14 28 16.904   -16 22 27.10  .36220 1.3626 163.6 21.5  45d 102
2025 05 17 09  14 28 18.282   -16 21 01.88  .36213 1.3625 163.6 21.5  45d 102
2025 05 17 10  14 28 19.663   -16 19 36.65  .36207 1.3624 163.5 21.5  45d 102
2025 05 17 11  14 28 21.047   -16 18 11.39  .36200 1.3623 163.5 21.5  45d 102
2025 05 17 12  14 28 22.435   -16 16 46.10  .36193 1.3621 163.5 21.5  45d 102
2025 05 17 13  14 28 23.825   -16 15 20.80  .36187 1.3620 163.4 21.5  45d 102
2025 05 17 14  14 28 25.220   -16 13 55.48  .36180 1.3619 163.4 21.5  45d 102
2025 05 17 15  14 28 26.617   -16 12 30.13  .36174 1.3618 163.3 21.5  45d 102
2025 05 17 16  14 28 28.018   -16 11 04.77  .36167 1.3617 163.3 21.5  45d 102
2025 05 17 17  14 28 29.423   -16 09 39.38  .36161 1.3616 163.3 21.5  45d 102
2025 05 17 18  14 28 30.830   -16 08 13.98  .36154 1.3615 163.2 21.5  45d 102
2025 05 17 19  14 28 32.242   -16 06 48.55  .36148 1.3614 163.2 21.5  45d 102
2025 05 17 20  14 28 33.656   -16 05 23.11  .36141 1.3613 163.1 21.5  45d 102
2025 05 17 21  14 28 35.074   -16 03 57.64  .36135 1.3612 163.1 21.5  45d 102
2025 05 17 22  14 28 36.495   -16 02 32.16  .36128 1.3611 163.1 21.5  45d 102
2025 05 17 23  14 28 37.919   -16 01 06.65  .36122 1.3610 163.0 21.5  45d 102
2025 05 18 00  14 28 39.347   -15 59 41.13  .36116 1.3608 163.0 21.5  45d 102
2025 05 18 01  14 28 40.779   -15 58 15.59  .36110 1.3607 162.9 21.5  45d 102
2025 05 18 02  14 28 42.213   -15 56 50.03  .36103 1.3606 162.9 21.5  45d 102
2025 05 18 03  14 28 43.651   -15 55 24.45  .36097 1.3605 162.8 21.5  45d 102
2025 05 18 04  14 28 45.093   -15 53 58.86  .36091 1.3604 162.8 21.5  45d 102
2025 05 18 05  14 28 46.538   -15 52 33.25  .36085 1.3603 162.8 21.5  45d 102
2025 05 18 06  14 28 47.986   -15 51 07.61  .36079 1.3602 162.7 21.5  45d 102
2025 05 18 07  14 28 49.438   -15 49 41.97  .36072 1.3601 162.7 21.5  45d 102
2025 05 18 08  14 28 50.893   -15 48 16.30  .36066 1.3600 162.6 21.5  45d 102
2025 05 18 09  14 28 52.351   -15 46 50.62  .36060 1.3599 162.6 21.5  45d 102
2025 05 18 10  14 28 53.813   -15 45 24.92  .36054 1.3598 162.6 21.5  45d 102
2025 05 18 11  14 28 55.279   -15 43 59.20  .36048 1.3597 162.5 21.5  45d 102
2025 05 18 12  14 28 56.747   -15 42 33.47  .36042 1.3596 162.5 21.5  45d 102
2025 05 18 13  14 28 58.220   -15 41 07.72  .36036 1.3595 162.4 21.5  45d 102
2025 05 18 14  14 28 59.695   -15 39 41.96  .36030 1.3593 162.4 21.5  45d 102
2025 05 18 15  14 29 01.174   -15 38 16.18  .36025 1.3592 162.4 21.5  45d 102
2025 05 18 16  14 29 02.657   -15 36 50.38  .36019 1.3591 162.3 21.5  45d 102
2025 05 18 17  14 29 04.143   -15 35 24.57  .36013 1.3590 162.3 21.5  45d 102
2025 05 18 18  14 29 05.633   -15 33 58.75  .36007 1.3589 162.2 21.5  45d 102
2025 05 18 19  14 29 07.125   -15 32 32.91  .36001 1.3588 162.2 21.5  45d 102
2025 05 18 20  14 29 08.622   -15 31 07.06  .35995 1.3587 162.2 21.5  45d 102
2025 05 18 21  14 29 10.122   -15 29 41.19  .35990 1.3586 162.1 21.5  45d 102
2025 05 18 22  14 29 11.625   -15 28 15.30  .35984 1.3585 162.1 21.5  45d 102
2025 05 18 23  14 29 13.132   -15 26 49.41  .35978 1.3584 162.0 21.5  45d 102
2025 05 19 00  14 29 14.642   -15 25 23.50  .35973 1.3583 162.0 21.5  45d 102